Location: Eferding
(48.3167°N, 14.0167°E)
Time: 21:47:41
(UTC+00:00)

Sich 1 - Pass Details

Date: 12 November 2019
Orbit: 595 x 625 km, 82.5° (Epoch: 11 December)

Event Time Altitude Azimuth Distance (km) Brightness Sun altitude
Rises 17:15:33 0° 350° (N) 2,863 6.5 -17.7°
Reaches altitude 10° 17:17:46 10° 352° (N) 1,959 5.6 -18.0°
Maximum altitude 17:22:06 84° 79° (E) 617 2.9 -18.7°
Drops below altitude 10° 17:26:27 10° 170° (S) 1,961 5.6 -19.5°
Sets 17:28:40 0° 171° (S) 2,866 6.4 -19.8°
